Regional Weather Roundup
Issued by NWS

Home | Current Version | Previous Version | Text Only | Print | Product List | Glossary Off
Versions: 1 2 3 4 5 6 7 8 9 10 11 12 13 14 15 16 17 18 19 20 21 22 23 24 25 26 27 28 29 30 31 32 33 34 35 36 37 38 39 40 41 42 43 44 45 46 47 48 49 50

000
ASUS43 KLOT 271900
RWRIL

ILLINOIS REGIONAL WEATHER ROUNDUP
NATIONAL WEATHER SERVICE CHICAGO/ROMEOVILLE IL
100 PM CST FRI FEB 27 2015

NOTE: "FAIR" INDICATES FEW OR NO CLOUDS BELOW 12,000 FEET WITH NO
SIGNIFICANT WEATHER AND/OR OBSTRUCTIONS TO VISIBILITY.

* THESE STATIONS ARE NOT UNDER NWS QUALITY CONTROL. THEY ALSO MAY NOT
  REPORT WEATHER SUCH AS PRECIPITATION OR FOG.

ILZ001-002-007-009-015-016-024-272000-
NORTHWEST ILLINOIS

CITY           SKY/WX    TMP DP  RH WIND       PRES   REMARKS
MOLINE         SUNNY     13  -4  46 CALM      30.64F
STERLING*      SUNNY     10  -2  56 W3        30.64F
$$

ILZ003-004-008-010-011-017-018-272000-
NORTH CENTRAL ILLINOIS

CITY           SKY/WX    TMP DP  RH WIND       PRES   REMARKS
ROCKFORD       SUNNY     11  -6  46 W12       30.61F WCI  -3
DE KALB*       SUNNY      8  -5  55 SW10      30.60F WCI  -6
$$

ILZ005-006-012>014-019>023-272000-
NORTHEAST ILLINOIS

CITY           SKY/WX    TMP DP  RH WIND       PRES   REMARKS
CHICAGO-OHARE  SUNNY     13  -5  44 SW8       30.59F WCI   2
CHICAGO-MIDWAY SUNNY     16  -2  45 W10       30.61F WCI   4
AURORA         SUNNY     10  -1  61 W9        30.62F WCI  -3
WAUKEGAN       SUNNY     15  -6  39 VRB6      30.57F WCI   6
DUPAGE AIRPORT MIX PCPN  12  -3  51 W12       30.60F WCI  -2
WHEELING       SUNNY     16  -6  37 W8        30.60F WCI   5
NORTHERLY ISL    N/A     18  -4  37 W7          N/A  WCI   9
$$

LMZ740>746-272000-
SOUTHERN LAKE MICHIGAN

STATION/POSITION SKY/WX   TEMP    WIND        PRES    VSBY  WAVE
                          AIR SEA DIR/SP/G                  HT/PER
                          (F)     (DEG/KT/KT) (MB)    (MI)  (FT/S)
WAUKEGAN HARBOR            15     300/  8/ 13   N/A
HARRISON CRIB              14     280/  9/ 12   N/A
BURNHAM HARBOR             18     260/  5/ 12   N/A
CALUMET HARBOR             16     210/  7/ 13 1035.0F
MICHIGAN CITY              13     240/ 10/ 12   N/A
$$

ILZ025>027-034>036-040-047-049-050-058-095>099-272000-
WEST-CENTRAL ILLINOIS

CITY           SKY/WX    TMP DP  RH WIND       PRES   REMARKS
QUINCY         SUNNY     10  -5  50 N5        30.64F WCI   2
$$

ILZ028>032-037-038-041>044-048-051>054-059>061-272000-
CENTRAL ILLINOIS

CITY           SKY/WX    TMP DP  RH WIND       PRES   REMARKS
DECATUR        SUNNY     15   1  53 NE3       30.63F
PEORIA         SUNNY     13  -3  49 W7        30.64F WCI   3
SPRINGFIELD    SUNNY      8   0  69 SW7       30.65F WCI  -3
TAYLORVILLE    NOT AVBL
$$

ILZ033-039-045-046-055>057-062-063-272000-
EAST-CENTRAL ILLINOIS

CITY           SKY/WX    TMP DP  RH WIND       PRES   REMARKS
CHAMPAIGN      SUNNY     10   2  69 SW6       30.63F WCI   0
MATTOON        SUNNY     13   1  59 N5        30.63F WCI   5
$$

ILZ079-100>102-272000-
SOUTHWEST ILLINOIS

CITY           SKY/WX    TMP DP  RH WIND       PRES   REMARKS
ALTON          SUNNY     14  -6  41 N7        30.66F WCI   4
BELLEVILLE     SUNNY     20   1  44 VRB7      30.64F WCI  11
CAHOKIA*       SUNNY     19   2  47 N7        30.65F WCI  10
$$

ILZ064>066-069>071-074>076-080>082-084>086-088>090-092>094-272000-
SOUTH-CENTRAL ILLINOIS

CITY           SKY/WX    TMP DP  RH WIND       PRES   REMARKS
CARBONDALE     MOSUNNY   20   7  57 VRB7      30.62F WCI  11
MARION         MOSUNNY   21   9  58 N5        30.62F WCI  15
MT. VERNON     SUNNY     19   5  53 N5        30.63F WCI  13
$$

ILZ067-068-072-073-078-083-087-091-272000-
SOUTHEAST ILLINOIS

CITY           SKY/WX    TMP DP  RH WIND       PRES   REMARKS
LAWRENCEVILLE  FLURRIES  20   4  50 CALM      30.65F
$$

ABBREVIATIONS USED IN REMARKS
   TC - TEMPERATURE IN CELSIUS
  WCI - WIND CHILL INDEX
   HX - HEAT INDEX
  VSB - VISIBILITY
$$



USA.gov is the U.S. government's official web portal to all federal, state and local government web resources and services.